User: anonymous   Login
Location: Melbourne
(37.8170°S, 144.9670°E)
Time: 18:38:45
(UTC+10:00)
Language:

ISS - Orbit

View from above orbital plane
View from above orbital plane
View from above satellite
View from above satellite

Ground track
Ground track

The orbit data is extracted from the following two-line orbital elements,

1 25544U 98067A   15215.13056721  .00005403  00000-0  86147-4 0  9991
2 25544 051.6429 209.6335 0001269 039.9319 079.0784 15.54977157955341
Epoch (UTC): 03 August 2015 03:08:01
Eccentricity: 0.0001269
inclination: 51.6429°
perigee height: 401 km
apogee height: 403 km
right ascension of ascending node: 209.6335°
argument of perigee: 39.9319°
revolutions per day: 15.54977157
mean anomaly at epoch: 79.0784°
orbit number at epoch: 95534

The dashed part of the orbit path shows where the satellite is in the earth's shadow,  

DLR